Tracking 30995 objects as of 7-Jul-2025
HD Live streaming from Space Station
objects crossing your sky now

CZ-2D DEB

Track CZ-2D DEB now!
10-day predictions


NORAD ID: 38178
Int'l Code: 2011-068F
Perigee: 684.7 km
Apogee: 857.6 km
Inclination: 98.8 °
Period: 100.1 minutes
Semi major axis: 7142 km
RCS: 0.0014 m2 (small)
Launch date: November 20, 2011
Source: People's Republic of China (PRC)
Launch site: Jiuquan Satellite Launch Center, China (JSC)

Note: This is SATELLITE DEBRIS
Your satellite tracking list
OV1-5 DEB
Track 1 satellite(s)




NASA's NSSDC Master Catalog

Two Line Element Set (TLE):
1 38178U 11068F   25187.27308250  .00001429  00000-0  44597-3 0  9991
2 38178  98.7524 204.7966 0121044   6.5271  51.2836 14.38320744708366
Source of the keplerian elements: AFSPC